Location: Maddington
(51.2000°N, 1.9167°W)
Time: 12:15:21
(UTC+00:00)

USA 229 - Pass Details

Date: 18 September 2020
Orbit: 973 x 1239 km, 63.4° (Epoch: 14 October)

Event Time Altitude Azimuth Distance (km) Brightness Sun altitude
Rises 18:40:09 0° 240° (WSW) 3,711 7.5 -4.9°
Reaches altitude 10° 18:42:43 10° 244° (WSW) 2,788 6.9 -5.3°
Maximum altitude 18:49:12 59° 323° (NW) 1,202 4.3 -6.3°
Drops below altitude 10° 18:56:08 10° 43° (NE) 2,975 5.7 -7.3°
Sets 18:58:58 0° 48° (NE) 3,977 6.3 -7.8°
